Location: Gesvres
(49.0440°N, 2.8518°E)
Time: 20:53:57
(UTC+00:00)

BlueWalker 3 - Pass Details

Date: 10 June 2023
Orbit: 492 x 508 km, 53.2° (Epoch: 22 September)

Event Time Altitude Azimuth Distance (km) Brightness Sun altitude
Rises 22:00:44 0° 294° (WNW) 2,583 6.4 -14.0°
Reaches altitude 10° 22:02:56 10° 290° (WNW) 1,701 5.3 -14.2°
Maximum altitude 22:06:40 51° 214° (SW) 633 2.2 -14.4°
Enters shadow 22:08:25 28° 151° (SSE) 973 2.8 -14.6°
